This demonstration page uses our WeatherBlox Daily Observations layout. Learn more.

Left ArrowRight Arrow

39.95238, -75.16362

Hourly Observations for August 11, 2022

Temp ( °F °C ) Dew Point ( °F °C ) Humidity (%) Winds ( mph kmh ) Pressure ( in mb ) Visibility ( mi km ) Precip ( " mm )
12:54 am 00:54 Cloudy 81 27.2 74 23.3 79 79 WSW 8 13 29.94 1014 10 16 0.00 0.00
1:54 am 01:54 Cloudy 80 26.7 75 23.9 85 85 SSW 10 17 29.94 1014 10 16 0.00 0.00
2:54 am 02:54 Cloudy with Light Rain 80 26.7 76 24.4 87 87 SW 6 9 29.93 1013 10 16 0.01 0.13
3:20 am 03:20 Cloudy with Nearby Thunderstorms 79 26.1 75 23.9 88 88 SW 14 22 29.93 1013 6 10 0.01 0.13
3:29 am 03:29 Cloudy with Thunderstorms 77 25 74 23.3 90 90 W 20 31 29.93 1013 2 3 0.11 2.79
3:38 am 03:38 Cloudy with Strong Thunderstorms 75 23.9 73 22.8 94 94 WNW 18 30 29.94 1014 2 2 0.57 14.48
3:44 am 03:44 Cloudy with Strong Thunderstorms 74 23.3 72 22.2 94 94 NW 17 28 29.95 1014 1 2 0.94 23.88
4:12 am 04:12 Cloudy with Nearby Thunderstorms 75 23.9 72 22.2 90 90 WNW 8 13 29.95 1014 5 8 0.22 5.59
4:19 am 04:19 Cloudy with Thunderstorms 75 23.9 71 21.7 88 88 W 6 9 29.95 1014 6 10 0.25 6.35
4:29 am 04:29 Cloudy with Nearby Thunderstorms 75 23.9 71 21.7 88 88 Calm 29.95 1014 6 10 0.29 7.37
4:51 am 04:51 Cloudy with Light Rain 73 23 72 22 94 94 N 3 6 29.93 1013 6 10 0.36 9.14
4:54 am 04:54 Cloudy with Light Rain 74 23.3 71 21.7 91 91 Calm 29.92 1013 6 10 0.36 9.14
5:16 am 05:16 Cloudy with Light Rain 74 23.3 71 21.7 91 91 N 5 7 29.92 1013 7 11 0.02 0.51
5:54 am 05:54 Cloudy 75 23.9 71 21.7 88 88 Calm 29.91 1013 10 16 0.02 0.51
6:54 am 06:54 Cloudy 76 24.4 72 22.2 88 88 VRB 7 11 29.93 1013 10 16 0.00 0.00
7:21 am 07:21 Mostly Cloudy 76 24.4 73 22.8 91 91 WSW 8 13 29.93 1013 10 16 0.00 0.00
7:45 am 07:45 Mostly Cloudy 76 24.4 72 22.2 88 88 WSW 7 11 29.93 1013 10 16 0.00 0.00
7:54 am 07:54 Mostly Cloudy 76 24.4 72 22.2 88 88 W 7 11 29.93 1014 10 16 0.00 0.00
8:54 am 08:54 Mostly Cloudy 77 25 73 22.8 88 88 W 7 11 29.93 1014 10 16 0.00 0.00
9:54 am 09:54 Mostly Cloudy 78 25.6 74 23.3 87 87 NNW 8 13 29.93 1013 10 16 0.00 0.00
10:54 am 10:54 Mostly Cloudy 82 27.8 70 21.1 67 67 NNW 9 15 29.92 1013 10 16 0.00 0.00
11:54 am 11:54 Partly Cloudy 85 29.4 68 20 57 57 N 8 13 29.92 1013 10 16 0.00 0.00
12:54 pm 12:54 Partly Cloudy 86 30 64 17.8 48 48 VRB 5 7 29.91 1013 10 16 0.00 0.00
1:54 pm 13:54 Mostly Cloudy 88 31.1 64 17.8 45 45 NNW 6 9 29.90 1012 10 16 0.00 0.00
2:54 pm 14:54 Mostly Cloudy 88 31.1 63 17.2 43 43 VRB 6 9 29.89 1012 10 16 0.00 0.00
3:54 pm 15:54 Mostly Cloudy 89 31.7 61 16.1 39 39 NW 12 19 29.88 1012 10 16 0.00 0.00
4:54 pm 16:54 Mostly Cloudy 89 31.7 62 16.7 41 41 WSW 9 15 29.86 1011 10 16 0.00 0.00
5:54 pm 17:54 Partly Cloudy 90 32.2 60 15.6 37 37 WNW 8 13 29.86 1011 10 16 0.00 0.00
6:54 pm 18:54 Mostly Sunny 89 31.7 60 15.6 38 38 W 9 15 29.86 1011 10 16 0.00 0.00
7:54 pm 19:54 Partly Cloudy 87 30.6 60 15.6 40 40 W 12 19 29.87 1011 10 16 0.00 0.00
8:54 pm 20:54 Partly Cloudy 85 29.4 63 17.2 48 48 WSW 12 19 29.88 1012 10 16 0.00 0.00
9:54 pm 21:54 Mostly Cloudy 84 28.9 65 18.3 53 53 WSW 10 17 29.89 1012 10 16 0.00 0.00
10:54 pm 22:54 Cloudy 82 27.8 65 18.3 56 56 W 10 17 29.89 1012 10 16 0.00 0.00
11:54 pm 23:54 Cloudy 82 27.8 59 15 46 46 N 13 20 29.91 1013 10 16 0.00 0.00

Powered by AerisWeather